Back to catalog

STARLINK-30772

AliveCommunicationsVLEO
NORAD 58135·PAYLOAD·🇺🇸 United States

Launched Oct 22, 2023 from Cape Canaveral Space Force Station

Loading…

Next Passes (next 24 hours)

TLE

FreshSource: CelesTrak SupGP

Epoch: Sep 14, 2026, 13:22 UTC

1 58135C 23162T   26257.55743056  .00017103  00000+0  61980-3 0  2578
2 58135  43.0006 145.7794 0001611 263.7336  68.8485 15.27551338    13

Track STARLINK-30772 in real time with AllMySat

Download on the App Store